Location: Unsp...
(0.0000°N, 0.0000°E)
Time: 10:51:15
(UTC+02:00)

Daily predictions for brighter satellites

Satellite Brightness Start Highest point End
(mag) Time Altitude Azimuth Time Altitude Azimuth Time Altitude Azimuth
Cosmos 2322 Rocket 2.3 20:18:29 10° N 20:24:04 60° ENE 20:29:37 10° SSE
Cosmos 2297 Rocket 2.8 20:22:46 10° S 20:27:49 34° ESE 20:32:52 10° NE
MONITOR-E 4.1 20:24:48 10° SSE 20:27:55 84° ENE 20:31:01 10° N
Ariane H10 4.1 20:25:02 10° WNW 20:28:17 61° N 20:40:30 10° E
Cosmos 2058 Rocket 4.4 20:25:49 10° NNW 20:30:05 45° W 20:34:22 10° SSW
Nadezhda 3 Rocket 4.2 20:25:42 10° S 20:31:53 53° E 20:37:58 10° NNE
Cosmos 1953 4.4 20:31:34 10° E 20:32:01 10° E 20:32:28 10° E
ARIANE 5 R/B 2.5 20:31:02 10° W 20:34:42 73° S 20:39:15 10° E
NOSS 3-1 (C) 4.5 20:26:54 10° NNW 20:35:21 77° WSW 20:43:48 10° SSE
METEOR-M 4.3 20:33:16 10° SSE 20:38:30 56° ENE 20:43:42 10° N
GPS 2-12 Rocket1 3.1 20:33:49 10° WSW 20:38:39 83° SSE 20:43:28 10° ENE
Cosmos 407 Rocket 3.4 20:36:21 10° S 20:41:31 75° ESE 20:46:36 10° NNE
Cosmos 389 Rocket 3.6 20:40:41 10° NNE 20:43:43 26° E 20:46:37 11° SE
Meteor 2-21 4.5 20:39:44 10° N 20:45:50 68° E 20:51:59 10° S
Meteor 2-5 Rocket 4.4 20:40:30 10° SSE 20:45:53 36° E 20:51:10 10° NNE
Cosmos 1331 Rocket 4.0 20:42:14 10° NNW 20:47:25 86° WSW 20:52:39 10° S
Meteor 1-22 Rocket 4.4 20:41:30 10° N 20:47:32 89° E 20:53:40 10° S
ATLAS 2A CENTAUR R/B 4.2 20:41:07 10° SW 20:47:45 66° SE 21:34:16 10° ENE
Meteor 2-8 Rocket 4.4 20:41:48 10° S 20:47:58 78° E 20:54:04 10° N
ATLAS 5 CENTAUR R/B 1.8 20:45:22 10° S 20:49:47 47° ESE 20:54:07 10° NE
Cosmos 2218 Rocket 4.0 20:44:04 10° N 20:50:26 80° E 20:56:51 10° S
SL-8 Rocket 4.2 20:45:21 10° N 20:51:37 79° W 20:57:53 10° S
Cosmos 1954 Rocket 4.2 20:49:44 10° S 20:54:47 47° ESE 20:59:46 10° NNE
Meteor 2-21 Rocket 4.4 20:55:10 10° N 21:01:18 75° E 21:07:28 10° S
Cosmos 1544 3.0 20:58:56 10° N 21:02:37 72° E 21:06:21 10° S
SJ-6B 3.5 21:01:03 20° SE 21:03:17 35° ENE 21:06:51 10° NNE
USA 234 3.3 20:57:10 10° NE 21:03:42 89° NW 21:10:16 10° SW
Ariane H10 3.2 21:01:29 10° WSW 21:03:43 20° S 21:04:14 19° SSE
DASH 3.4 21:02:30 10° W 21:05:01 33° SSW 21:07:56 17° SE
Cosmos 1271 Rocket 4.0 21:06:00 10° NNW 21:09:44 41° W 21:13:27 10° SSW
Cosmos 1378 3.2 21:06:09 10° S 21:09:48 55° E 21:13:29 10° NNE
BLOCK DM-SL R/B 3.9 21:03:02 10° W 21:10:52 49° N 21:13:57 15° ENE
Cosmos 2227 Rocket 2.9 21:05:30 10° SSW 21:11:02 57° WNW 21:16:33 10° N
Meteor 1-24 Rocket 4.3 21:06:53 10° SSE 21:12:25 38° E 21:17:51 10° NNE
Cosmos 2366 rocket 4.3 21:07:39 10° N 21:13:51 70° W 21:20:08 10° S
ALOS 2.2 21:09:47 11° SSE 21:14:19 79° ENE 21:18:59 10° N
FREGAT/IRIS 2.5 21:13:52 26° S 21:15:27 88° W 21:18:30 10° NNW
Cosmos 2084 3.3 21:12:11 10° SSW 21:16:41 86° ESE 21:20:53 10° NNE
Cosmos 1302 Rocket 4.1 21:13:47 10° NNW 21:19:02 77° W 21:23:51 12° S
CRYOSAT 2 4.2 21:14:58 10° S 21:19:48 80° E 21:24:39 10° N
ATLAS 2AS CENTAUR R/B 3.6 21:16:00 10° N 21:21:59 27° ENE 21:23:41 25° E
ARIANE 5 DEB (SYLDA) 3.5 21:20:47 10° W 21:23:51 70° S 21:28:18 26° E
Iridium 2 3.7 21:22:09 10° NNE 21:25:53 54° E 21:26:11 52° ESE
HJ-1C 3.2 21:28:19 70° E 21:28:25 71° E 21:31:45 10° N
Cosmos 1805 4.4 21:29:46 10° NNW 21:33:30 43° W 21:36:38 14° SSW
Spot 2 Rocket 4.2 21:34:29 34° ENE 21:34:29 34° ENE 21:38:42 10° NNE
Cosmos 1758 3.8 21:32:30 10° NNW 21:36:29 60° W 21:38:36 26° SSW
Cosmos 2360 Rocket 2.3 21:31:00 10° NNW 21:36:34 75° WSW 21:39:51 26° S
COSMOS 2428 3.3 21:31:28 10° N 21:36:40 37° ENE 21:36:50 37° ENE
SL-16 R/B 4.4 21:32:34 10° WNW 21:36:44 21° WSW 21:40:55 10° SSW
BLOCK-DM UPPERSTAGE 3.3 21:33:15 10° W 21:40:11 88° N 21:41:01 56° E
Maqsat-H 3.8 21:35:01 10° W 21:40:48 81° S 21:53:48 29° ESE
Maqsat-H 3.8 21:35:00 10° W 21:40:48 81° S 21:53:48 29° ESE
Maqsat-H 3.8 21:35:01 10° W 21:40:48 81° S 21:53:46 29° ESE
Maqsat-H 3.8 21:35:01 10° W 21:40:48 81° S 21:53:47 29° ESE
Maqsat-H 3.8 21:35:01 10° W 21:40:49 81° S 21:53:47 29° ESE
Maqsat-H 3.8 21:35:01 10° W 21:40:49 81° S 21:53:48 29° ESE
Helios 1B rocket 2.7 21:39:00 10° NNE 21:42:15 52° NE 21:42:15 52° NE
Delta 142 3.8 21:38:11 10° WNW 21:43:56 67° SSW 21:44:41 57° SSE
Molniya-1 4.1 21:45:10 45° NE 21:45:10 45° NE 21:49:36 10° NNE
Cosmos 1470 3.5 21:44:38 10° N 21:47:19 42° N 21:47:19 42° N
ASTEX 1 4.0 21:45:16 17° S 21:48:49 53° W 21:53:33 10° NNW
Cosmos 1733 4.0 21:47:58 10° N 21:50:41 44° N 21:50:41 44° N
USA 215 4.4 21:50:54 18° S 21:55:00 35° SW 22:00:51 10° WNW
Cosmos 2219 Rocket 3.5 21:56:12 10° NNE 21:59:05 25° NE 21:59:05 25° NE
Cosmos 2333 Rocket 4.0 21:57:43 10° NNE 21:59:36 18° NE 21:59:36 18° NE
Cosmos 2239 Rocket 4.4 21:56:14 10° N 22:02:33 86° E 22:03:50 60° S
Ariane H10 3.1 21:47:41 10° W 22:03:04 83° N 22:03:27 75° ENE
Cosmos-2242 4.3 21:59:41 10° N 22:02:07 34° N 22:02:07 34° N
Meteor 2-15 4.4 22:00:57 28° SSW 22:04:20 77° W 22:10:22 10° N
Cosmos 1339 Rocket 4.4 22:04:11 47° S 22:06:15 89° W 22:12:38 10° N
GEOS 3 Rocket 3.9 22:15:05 60° W 22:15:05 60° W 22:19:41 10° NW
Centaur AC-42 2.9 22:13:17 10° WNW 22:16:03 38° W 22:16:03 38° W
Resurs 01 Rocket 3.4 22:26:45 30° WNW 22:26:45 30° WNW 22:29:32 10° NW
ATLAS 2AS CENTAUR R/B 4.2 23:06:32 10° NW 23:11:10 28° W 23:11:10 28° W
